Погода в Тевризе

Погода в Тевризе : погода сейчас, прогноз погоды и архив. Всё, что Вы хотите узнать о погоде в Тевризе!

Хотите узнать прогноз погоды в Тевризе? Тогда Вам сюда: Погода в Тевризе

Поиск расширенной информации на нашем сайте:

Другие новости

Новости СМИ2

Главная страница сайта

Новости сайта

02.10.2013

Напоминаем, что на нашем новом сайте вы можете получить высокодетализированные прогнозы погоды по пунктам России, СНГ и мира (включающие важные для авиации метеовеличины, такие как направление и скорость ветра, видимость, явления погоды, количество и форма облачности, нижняя и верхняя граница облачности), а также ознакомиться с разнообразными материалами по авиационной метеорологии и подборкой полезных ссылок на эту тему.

Сайт Метеоцентр.Азия посвящён разработке технологий оптимизации авиаметеорологического обслуживания, включая проектирование и перспективное создание нескольких автоматизированных авиаметеорологических систем:
- система выпуска высокодетальных прогностических карт явлений погоды для нижнего воздушного пространства по России и ближнему зарубежью;
- система верификации прогнозов TAF (выпускаемых синоптиками официальных АМСГ РФ и ближнего зарубежья) и AUTOTAF (выпускаемых сайтом Метеоцентр.Азия) - выявление ошибок, онлайн-сопоставление с фактической погодой METAR, автоматическое внесение коррективов в прогнозы при резком отклонении фактической погоды от прогноза, подсчёт оправдываемости прогнозов по элементам и в целом;
- система обработки, анализа и отображения авиаметеорологической информации для применения провайдерами метеорологической информации.

Рекомендуем: Супер прогрессивный стабилизатор переменного напряжения

Погода в Тевризе - сегодня

Время (UTC), дата Ветер
(°,м/с) 
Видим.   Явления Облачность Т
(°С)
Тd
(°С)
f(%) Тe
(°С)
Pmin
(гПа)
dP
(гПа)
Po
(мм)
O2
(г/м3)
Тmin Tmax R s Состояние
почвы
03 21.01.17 140 (ЮВ) 10 км  {снег} [диам. изморози 3 мм]  8/0 верхняя 
[Ci sp]
-17.6 -18.8 90 -22  999.9  -3  743  322  -19.2    0.0  69  неравномерный
сухой снег
100% 
06 21.01.17 180 (Ю) н/о    н/о 
-13.8 -15.1 90 -18  997.8  -1.9  742  316           
09 21.01.17 190 (Ю) 5{10}  20000 м  позёмок{снег} [диам. изморози 0 мм]  9/4 300 м средняя 
[Frnb|Ac As]
-12.1 -14 86 -17  996.1  -1.7  741  314           
12 21.01.17 190 (Ю) 6-11{11}  н/о    н/о 
-11.7 -13.8 84 -17  996.7  0.6  741  313           
15 21.01.17 200 (Ю) 5{11}  4000 м  слаб. снег  10/10 570 м 
[Ns]
-11.9 -13.7 86 -17  997.5  0.8  742  314    -11.6  0.5     
18 21.01.17 190 (Ю) 7-11{11}  4000 м  слаб. снег  9/9 660 м 
[Sc]
-12.6 -14.2 88 -19  998.4  0.9  742  315           
21 21.01.17 210 (ЮЗ) 7{12}  4000 м  слаб. снег  10/10 800 м 
[Sc]
-12.2 -13.7 89 -19  999.1  0.7  743  315           
00 22.01.17 210 (ЮЗ) 5-10{12}  10 км  позёмок{снег}  6/0 верхняя 
[Ci fib]
-12.1 -13.6 89 -17  999.9  0.8  744  315           
03 22.01.17 200 (Ю) 4{12}  10 км  позёмок  4/0 средняя 
[Ac trans]
-13.1 -14.1 92 -18  1001.2  1.2  745  316  -13.1    0.0  73  неравномерный
сухой снег
100% 
06 22.01.17 200 (Ю) н/о    н/о 
-11 -12.5 89 -15  1002.3  1.1  745  314           
09 22.01.17 190 (Ю) 20000 м  позёмок  10/0 средняя 
[As op]
-9.2 -11.5 83 -13  1001.6  -0.6  745  312           
12 22.01.17 170 (Ю) н/о    н/о 
-10 -11.3 90 -14  1000.6  -1  744  312           
15 22.01.17 170 (Ю) 4000 м  слаб. снег  10/0 средняя 
[As op]
-9.7 -10.6 93 -14  998.8  -1.8  743  311    -9.1  0.2     
18 22.01.17 180 (Ю) 4000 м  слаб. снег  10/0 средняя 
[As op]
-9.5 -10.3 94 -12  996.4  -2.3  741  310           
21 22.01.17 190 (Ю) 4000 м  слаб. снег  10/0 средняя 
[As op]
-9.7 -10.2 96 -13  995  -1.4  740  310           
00 23.01.17 200 (Ю) 4000 м  слаб. снег  10/0 средняя 
[As op]
-10.2 -10.8 95 -13  994.3  -0.7  740  311           
03 23.01.17 210 (ЮЗ) 4000 м  слаб. снег  10/0 средняя 
[Ac As]
-11.6 -12.4 94 -15  994.7  0.3  740  312  -11.6    73  неравномерный
сухой снег
100% 
06 23.01.17 210 (ЮЗ) н/о    н/о 
-12.4 -13.4 92 -17  995.9  1.2  741  314  -12.8         
09 23.01.17 220 (ЮЗ) 20000 м  позёмок  10/0 средняя 
[Ac und]
-11.8 -14.1 83 -16  996.1  0.2  741  313           
12 23.01.17 210 (ЮЗ) н/о    н/о 
-13.7 -15.1 89 -17  997  0.8  741  316           
15 23.01.17 230 (ЮЗ) 4000 м  слаб. снег  10/0 верхняя 
[Cs]
-13.5 -15.4 86 -18  998.6  1.6  743  316    -11.6  0.0     
18 23.01.17 220 (ЮЗ) 4000 м  слаб. снег  10/0 средняя 
[As op]
-15.4 -17.1 87 -20  1000.3  1.6  744  319           
21 23.01.17 220 (ЮЗ) 4000 м  слаб. снег  10/0 верхняя 
[Cs]
-18.3 -19.7 89 -22  1001.7  1.3  745  323           
00 24.01.17 210 (ЮЗ) 4000 м  слаб. снег  10/0 средняя 
[As op]
-18.2 -19.8 87 -23  1002.3  0.7  745  323           
03 24.01.17 210 (ЮЗ) 4000 м  слаб. снег  10/10 480 м 
[Ns]
-18.2 -19.9 87 -22  1003.6  1.3  746  324  -19.2    0.3  67  неравномерный
сухой снег
100% 
Время (UTC), дата Ветер
(°,м/с) 
Видим.   Явления Облачность Т
(°С)
Тd
(°С)
f(%) Тe
(°С)
Pmin
(гПа)
dP
(гПа)
Po
(мм)
O2
(г/м3)
Тmin Tmax R s Состояние
почвы

Для получения пояснительной информации подведите курсор к названию столбца.

ПОГОДА в Тевризе - архив

Всё, что Вы хотите узнать о погоде в Тевризе - удобно и подробно!

Выберите нужную дату (начиная с 1 января 2015* года) и нажмите кнопку "Найти".
Будут отображены архивные сводки погоды по пункту Тевриз, начиная с указанной даты.


Отображать данные в формате CSV (для использования в таблицах Excel)


Внимание! Наш архив погоды предназначен исключительно для личного некоммерческого использования в познавательных целях. Если Вам необходимы официальные справки о состоянии погоды (для производственных, юридических, коммерческих и т.п. целей), обращайтесь в органы Росгидромета.

*Примечание: данная дата относится к архиву по метеостанциям СССР (Россия, СНГ, Балтия).
Архив по метеостанциям Зарубежной Европы и Азии (кроме Китая) хранится 10 дней, по другим регионам земного шара (Китай, Африка, Америка, Австралия, Океания) - 1 день.

Тевриз - район местоположения метеостанции


Название, широта, долгота, высота метеостанции:
Тевриз 57.5°ш. 72.4°д. 67 м над ур. моря [Российская Федерация]

Дополнительная информация

В oтличие oт бoльшинства пoгoдных сайтoв мы публикуем пoдрoбную метеoинфoрмацию в детальнoм прoфессиoнальнoм фoрмате.

Характеристики температуры и влажнoсти вoздуха измеряются на высoте 2 м в тени вдали oт зданий и деревьев.
Скoрoсть ветра измеряется на высoте 10 м (на урoвне рoста челoвека скoрoсть ветра ниже в 1.5-2 раза). Если метеoстанция нахoдится в гoрoде или в лесу, тo скoрoсть ветра занижена на 2-4 м/с пo сравнению с oткрытым местoм. Скoрoсть ветра над акватoриями крупных рек и oзёр, а также на вершинах хoлмoв на 2-5 м/с выше, чем в oбычных услoвиях.
Атмoсфернoе давление в разных тoчках местнoсти мoжет значительнo oтличаться oт давления на метеoстанции, в зависимoсти oт услoвий рельефа (при пoдъёме на 10 м давление пoнижается примернo на 1 мм рт.ст.).